Rolla, ND

11:50 AM CDT on April 26, 2017 (GMT -0500)
Rolla

Weather History for K06D - December, 2013

Change the Weather History Date:

Sunday, December 1, 2013

  Actual Average (KRUG) Record (KRUG)
Temperature  
Mean Temperature 14 °F -  
Max Temperature 19 °F 26 °F 52 °F (1969)
Min Temperature 10 °F 6 °F -18 °F (1978)
Degree Days  
Heating Degree Days 50    
Moisture  
Dew Point 15 °F    
Average Humidity 99    
Maximum Humidity 100    
Minimum Humidity 92    
Precipitation  
Precipitation 0.13 in - - ()
Sea Level Pressure  
Sea Level Pressure 29.96 in    
Wind  
Wind Speed 11 mph (SSE)    
Max Wind Speed 29 mph    
Max Gust Speed 43 mph    
Visibility 3 miles    
Events Fog , Snow    
Averages and records for this station are not official NWS values.
T = Trace of Precipitation, MM = Missing Value Source: NWS Daily Summary

Daily Weather History Graph

Daily Weather History Graph

Search for Another Location

Airport or City:

Trip Planner

Search our weather history database for the weather conditions in past years. The results will help you decide how hot, cold, wet, or windy it might be!

Date:

Astronomy

Dec. 01, 2013 Rise Set
Actual Time 8:11 AM CST 4:44 PM CST
Civil Twilight 7:34 AM CST 5:20 PM CST
Nautical Twilight 6:54 AM CST 6:00 PM CST
Astronomical Twilight 6:16 AM CST 6:38 PM CST
Moon 6:24 AM CST (12/1) 4:00 PM CST (12/1)
Length of Visible Light 9h 45m
Length of Day
8h 32m
Waning Crescent, 2% of the Moon is Illuminated
Dec 1
Waning Crescent
Dec 2
New
Dec 9
First Quarter
Dec 17
Full
Dec 25
Last Quarter

Hourly Weather History & Observations

Time (CST) Temp. Windchill Dew Point Humidity Pressure Visibility Wind Dir Wind Speed Gust Speed Precip Events Conditions
12:15 AM 10.4 °F -0.4 °F 10.4 °F 100% 30.15 in 0.2 mi SSW 6.9 mph - N/A Fog Light Freezing Fog
12:35 AM 10.4 °F -2.4 °F 10.4 °F 100% 30.15 in 0.2 mi SSW 9.2 mph - N/A Fog Light Freezing Fog
12:55 AM 10.4 °F -1.5 °F 10.4 °F 100% 30.14 in 0.2 mi SW 8.1 mph - N/A Fog Light Freezing Fog
1:15 AM 12.2 °F -0.2 °F 10.4 °F 92% 30.14 in 0.2 mi SSW 9.2 mph - N/A Fog Light Freezing Fog
1:35 AM 12.2 °F 1.7 °F 10.4 °F 92% 30.13 in 0.2 mi SW 6.9 mph - N/A Fog Light Freezing Fog
1:55 AM 12.2 °F 1.7 °F 10.4 °F 92% 30.13 in 0.2 mi SSW 6.9 mph - N/A Fog Light Freezing Fog
2:15 AM 10.4 °F -2.4 °F 10.4 °F 100% 30.13 in 0.5 mi SSW 9.2 mph - N/A Fog Light Freezing Fog
2:35 AM 10.4 °F -4.1 °F 10.4 °F 100% 30.14 in 0.5 mi SW 11.5 mph - N/A Snow Snow
2:55 AM 10.4 °F -2.4 °F 10.4 °F 100% 30.13 in 0.2 mi SSW 9.2 mph - N/A Fog Light Freezing Fog
3:15 AM 10.4 °F -2.4 °F 10.4 °F 100% 30.13 in 0.2 mi SSW 9.2 mph - N/A Fog Light Freezing Fog
3:35 AM 10.4 °F -4.1 °F 10.4 °F 100% 30.12 in 0.5 mi SSW 11.5 mph - N/A Snow Snow
3:55 AM 10.4 °F 0.8 °F 10.4 °F 100% 30.13 in 0.2 mi SW 5.8 mph - N/A Fog Light Freezing Fog
4:15 AM 10.4 °F -5.4 °F 10.4 °F 100% 30.12 in 0.5 mi SSW 13.8 mph - N/A Fog Light Freezing Fog
4:35 AM 10.4 °F -4.8 °F 10.4 °F 100% 30.12 in 0.5 mi SSW 12.7 mph - N/A Fog Light Freezing Fog
4:55 AM 10.4 °F -3.3 °F 10.4 °F 100% 30.10 in 0.2 mi SSW 10.4 mph - N/A Fog Light Freezing Fog
5:15 AM 10.4 °F 2.2 °F 8.6 °F 92% 30.09 in 0.2 mi SSW 4.6 mph - N/A Fog Light Freezing Fog
5:35 AM 10.4 °F -3.3 °F 8.6 °F 92% 30.09 in 0.5 mi SSW 10.4 mph 20.7 mph N/A Fog Light Freezing Fog
5:55 AM 10.4 °F -6.6 °F 8.6 °F 92% 30.09 in 0.2 mi South 16.1 mph 25.3 mph N/A Fog Light Freezing Fog
6:15 AM 10.4 °F - 10.4 °F 100% 30.09 in 0.5 mi North - - N/A Snow Snow
6:35 AM 10.4 °F - 10.4 °F 100% 30.09 in 0.2 mi North - - N/A Fog Light Freezing Fog
6:55 AM 12.2 °F - 10.4 °F 92% 30.09 in 0.2 mi North - - N/A Fog Light Freezing Fog
7:15 AM 12.2 °F - 12.2 °F 100% 30.08 in 0.2 mi North - - N/A Fog Light Freezing Fog
7:35 AM 12.2 °F - 12.2 °F 100% 30.07 in 0.2 mi North - - N/A Fog Light Freezing Fog
7:55 AM 12.2 °F -8.9 °F 12.2 °F 100% 30.06 in 0.2 mi North 28.8 mph 42.6 mph N/A Fog Light Freezing Fog
8:15 AM 12.2 °F - 12.2 °F 100% 30.05 in 0.2 mi North - - N/A Fog Light Freezing Fog
8:35 AM 14.0 °F - 12.2 °F 93% 30.05 in 0.2 mi North - - N/A Snow Heavy Snow
8:55 AM 14.0 °F 2.9 °F 14.0 °F 100% 30.06 in 0.2 mi SSE 8.1 mph 16.1 mph N/A Fog Light Freezing Fog
9:15 AM 14.0 °F - 14.0 °F 100% 30.05 in 0.2 mi North - - N/A Fog Light Freezing Fog
9:35 AM 14.0 °F - 14.0 °F 100% 30.05 in 0.2 mi North - - N/A Fog Light Freezing Fog
9:55 AM 15.8 °F - 15.8 °F 100% 30.04 in 0.2 mi North - - N/A Snow Heavy Snow
10:15 AM 15.8 °F - 15.8 °F 100% 30.04 in 0.8 mi North - - N/A   Overcast
10:35 AM 15.8 °F - 15.8 °F 100% 30.04 in 0.5 mi North - - N/A Fog Light Freezing Fog
10:55 AM 17.6 °F - 17.6 °F 100% 30.02 in 0.2 mi North - - N/A Fog Light Freezing Fog
11:15 AM 17.6 °F 6.4 °F 17.6 °F 100% 30.01 in 0.5 mi East 9.2 mph - N/A Fog Light Freezing Fog
11:35 AM 17.6 °F - 17.6 °F 100% 30.00 in 0.2 mi North - - N/A Snow Heavy Snow
11:55 AM 17.6 °F - 17.6 °F 100% 29.99 in 0.8 mi North - - N/A   Overcast
12:15 PM 19.4 °F 7.2 °F 19.4 °F 100% 29.98 in 1.0 mi SE 11.5 mph - N/A   Overcast
12:35 PM 19.4 °F - 19.4 °F 100% 29.96 in 2.0 mi North - - N/A Snow Light Snow
12:55 PM 19.4 °F - 19.4 °F 100% 29.95 in 4.0 mi North - - N/A   Overcast
1:15 PM 19.4 °F - 19.4 °F 100% 29.94 in 6.0 mi North - - N/A   Overcast
1:35 PM 19.4 °F - 19.4 °F 100% 29.94 in 10.0 mi North - - N/A   Overcast
1:55 PM 19.4 °F - 19.4 °F 100% 29.92 in 10.0 mi North - - N/A   Overcast
2:15 PM 19.4 °F - 19.4 °F 100% 29.91 in 6.0 mi North - - N/A Snow Light Snow
2:35 PM 19.4 °F - 19.4 °F 100% 29.89 in 1.8 mi North - - 0.04 in Snow Light Snow
2:55 PM 19.4 °F - 19.4 °F 100% 29.88 in 3.0 mi North - - 0.06 in Snow Light Snow
3:15 PM 19.4 °F - 19.4 °F 100% 29.87 in 2.0 mi North - - N/A Snow Light Snow
3:35 PM 19.4 °F - 19.4 °F 100% 29.87 in 2.0 mi North - - 0.02 in Snow Light Snow
3:55 PM 19.4 °F 7.2 °F 19.4 °F 100% 29.86 in 1.2 mi ESE 11.5 mph - 0.05 in Snow Light Snow
4:15 PM 19.4 °F 4.5 °F 19.4 °F 100% 29.86 in 5.0 mi SSE 17.3 mph 25.3 mph 0.01 in Snow Light Snow
4:35 PM 19.4 °F 7.9 °F 19.4 °F 100% 29.85 in 7.0 mi ESE 10.4 mph - 0.01 in Snow Light Snow
4:55 PM 19.4 °F 7.9 °F 19.4 °F 100% 29.85 in 7.0 mi SE 10.4 mph - 0.02 in Snow Light Snow
5:15 PM 19.4 °F 7.9 °F 19.4 °F 100% 29.85 in 5.0 mi SE 10.4 mph 19.6 mph N/A Snow Light Snow
5:35 PM 19.4 °F 4.5 °F 19.4 °F 100% 29.85 in 4.0 mi SSE 17.3 mph 27.6 mph N/A   Mostly Cloudy
5:55 PM 19.4 °F 5.0 °F 19.4 °F 100% 29.84 in 9.0 mi SSE 16.1 mph 21.9 mph N/A   Overcast
6:15 PM 19.4 °F 5.0 °F 19.4 °F 100% 29.83 in 4.0 mi SSE 16.1 mph 24.2 mph N/A Snow Light Snow
6:35 PM 19.4 °F 7.9 °F 19.4 °F 100% 29.83 in 4.0 mi SE 10.4 mph 21.9 mph N/A   Overcast
6:55 PM 19.4 °F 4.1 °F 19.4 °F 100% 29.82 in 9.0 mi SSE 18.4 mph 25.3 mph N/A   Mostly Cloudy
7:15 PM 19.4 °F 5.5 °F 19.4 °F 100% 29.82 in 10.0 mi SE 15.0 mph - N/A   Overcast
7:35 PM 19.4 °F 6.0 °F 19.4 °F 100% 29.81 in 7.0 mi SE 13.8 mph - N/A   Mostly Cloudy
7:55 PM 19.4 °F 7.9 °F 19.4 °F 100% 29.80 in 3.0 mi SE 10.4 mph - N/A Snow Light Snow
8:15 PM 19.4 °F 6.6 °F 19.4 °F 100% 29.80 in 4.0 mi SE 12.7 mph - N/A Snow Light Snow
8:35 PM 17.6 °F 3.2 °F 17.6 °F 100% 29.80 in 10.0 mi SE 15.0 mph - N/A   Overcast
8:55 PM 17.6 °F 3.7 °F 17.6 °F 100% 29.79 in 10.0 mi SE 13.8 mph - N/A   Overcast
9:15 PM 17.6 °F 5.7 °F 17.6 °F 100% 29.79 in 10.0 mi SE 10.4 mph - N/A   Overcast
9:35 PM 17.6 °F 5.0 °F 17.6 °F 100% 29.79 in 10.0 mi SE 11.5 mph - N/A   Overcast
9:55 PM 17.6 °F 3.7 °F 17.6 °F 100% 29.78 in 10.0 mi SE 13.8 mph 19.6 mph N/A   Overcast
10:15 PM 17.6 °F 5.0 °F 17.6 °F 100% 29.77 in 10.0 mi SE 11.5 mph - N/A   Overcast
10:35 PM 17.6 °F 4.3 °F 17.6 °F 100% 29.77 in 10.0 mi ESE 12.7 mph - N/A   Overcast
10:55 PM 17.6 °F 4.3 °F 17.6 °F 100% 29.77 in 10.0 mi ESE 12.7 mph - N/A   Overcast
11:15 PM 17.6 °F 3.7 °F 17.6 °F 100% 29.77 in 10.0 mi ESE 13.8 mph - N/A   Overcast
11:35 PM 17.6 °F 3.7 °F 17.6 °F 100% 29.76 in 10.0 mi ESE 13.8 mph 17.3 mph N/A   Overcast
11:55 PM 17.6 °F 3.7 °F 17.6 °F 100% 29.76 in 10.0 mi ESE 13.8 mph - N/A   Overcast